Home   Weather   Enns   Past weeks

Flag for Austria Past Weather in Enns, Upper Austria, Austria — Yesterday and Last 2 Weeks

Now
75 °F

Passing clouds.


Feels Like: 78 °F
Forecast: 49 / 76 °F
Wind: N/A

Location: Linz / Hoersching-Flughafen

Current Time: Sep 30, 2016 at 5:13:57 PM

Latest Report: Sep 30, 2016 at 4:00 PM


Visibility: 13 mi

Pressure: 29.96 "Hg

Humidity: 40%

Dew Point: 49 °F

Location of EnnsLocation

Past Weather in Enns — Graph

°F

Enns Temperature Yesterday

Maximum temperature yesterday: 75 °F (at 6:00 PM)
Minimum temperature yesterday: 53 °F (at 8:00 AM)
Average temperature yesterday: 60 °F

High & Low Weather Summary for the Past Weeks

 TemperatureHumidityPressure
High84 °F (Sep 15, 4:00 PM)100% (Sep 26, 7:00 AM)30.43 "Hg (Sep 26, 7:00 AM)
Low43 °F (Sep 24, 7:00 AM)35% (Sep 24, 4:00 PM)29.79 "Hg (Sep 17, 1:00 AM)
Average58 °F80%30.12 "Hg
* Reported Sep 15 4:00 PM — Sep 30 4:00 PM, Enns, Weather by CustomWeather, © 2016

Note: Actual official high and low records may vary slightly from our data, if they occured in-between our weather recording intervals... More about our weather records

Advertising

Enns Weather History for the Previous 24 Hours

Scroll right to see more
 ConditionsComfort  
Time TempWeatherWind HumidityBarometerVisibility
4:00 PM
Fri, Sep 30
75 °FPassing clouds.N/A40%29.96 "Hg13 mi
3:00 PM74 °FPassing clouds.N/A41%29.98 "Hg22 mi
2:00 PM74 °FPassing clouds.N/A46%30.01 "Hg19 mi
1:00 PM73 °FPassing clouds.N/A48%30.03 "Hg12 mi
12:00 PM68 °FSunny.N/A58%30.06 "Hg13 mi
11:00 AM64 °FSunny.N/A66%30.08 "Hg14 mi
10:00 AM60 °FSunny.N/A78%30.10 "Hg8 mi
9:00 AM56 °FSunny.N/A84%30.09 "Hg6 mi
8:00 AM50 °FLight rain. Passing clouds.N/A100%30.10 "Hg1 mi
7:00 AM50 °FClear.N/A97%30.09 "Hg3 mi
6:00 AM50 °FClear.N/A96%30.09 "Hg7 mi
5:00 AM51 °FClear.N/A96%30.10 "Hg4 mi
3:00 AM53 °FCool.N/A94%30.10 "Hg7 mi
2:00 AM52 °FCool.N/A94%30.11 "Hg8 mi
1:00 AM54 °FPassing clouds.N/A97%30.10 "Hg6 mi
11:00 PM
Thu, Sep 29
55 °FCool.N/A89%30.09 "Hg11 mi
10:00 PM58 °FCool.N/A84%30.09 "Hg16 mi
9:00 PM59 °FCool.N/A81%30.09 "Hg19 mi
8:00 PM63 °FPassing clouds.N/A71%30.08 "Hg25 mi
7:00 PM69 °FPassing clouds.N/A59%30.07 "Hg22 mi
6:00 PM75 °FPassing clouds.N/A46%30.06 "Hg22 mi
Weather by CustomWeather, © 2016

See weather overviewHow to use our weather pages